This is the latest recevied weather packets stored in our database for station/object DM4XI-13. If no packets are shown the sender has not sent any weather packets the latest 10 day(s).
| Time | Temp. | Humidity | Pressure | Rain* | Wind** | Luminosity | Snow |
|---|---|---|---|---|---|---|---|
| 1777481378 | 14.44° C | 26% | 1021.3 hPa | 0 mm | 1.79 m/s, 290° | 76 W/m² | - |
| 1777481318 | 14.44° C | 27% | 1021.1 hPa | 0 mm | 0.89 m/s, 341° | 82 W/m² | - |
| 1777481256 | 14.44° C | 27% | 1021.1 hPa | 0 mm | 1.79 m/s, 15° | 81 W/m² | - |
| 1777481195 | 15° C | 27% | 1021.2 hPa | 0 mm | 1.34 m/s, 30° | 83 W/m² | - |
| 1777481134 | 15° C | 26% | 1021.1 hPa | 0 mm | 2.68 m/s, 51° | 81 W/m² | - |
| 1777481073 | 15° C | 27% | 1021.3 hPa | 0 mm | 2.24 m/s, 29° | 82 W/m² | - |
| 1777481012 | 15° C | 27% | 1021.1 hPa | 0 mm | 1.34 m/s, 126° | 79 W/m² | - |
| 1777480951 | 15° C | 27% | 1021.1 hPa | 0 mm | 1.79 m/s, 21° | 84 W/m² | - |
| 1777480890 | 15° C | 27% | 1021.2 hPa | 0 mm | 0.89 m/s, 329° | 88 W/m² | - |
| 1777480829 | 15° C | 28% | 1021.2 hPa | 0 mm | 2.24 m/s, 37° | 85 W/m² | - |
| 1777480768 | 15° C | 28% | 1021.2 hPa | 0 mm | 0.89 m/s, 49° | 79 W/m² | - |
| 1777480707 | 15° C | 28% | 1021.3 hPa | 0 mm | 2.24 m/s, 30° | 87 W/m² | - |
| 1777480646 | 15° C | 28% | 1021.2 hPa | 0 mm | 0.89 m/s, 336° | 91 W/m² | - |
| 1777480585 | 15° C | 28% | 1021.1 hPa | 0 mm | 0.45 m/s, 171° | 76 W/m² | - |
| 1777480524 | 15° C | 28% | 1020.9 hPa | 0 mm | 1.34 m/s, 49° | 93 W/m² | - |
| 1777480463 | 15.56° C | 28% | 1021 hPa | 0 mm | 1.34 m/s, 212° | 92 W/m² | - |
| 1777480402 | 15.56° C | 28% | 1021 hPa | 0 mm | 2.68 m/s, 323° | 94 W/m² | - |
| 1777480341 | 15.56° C | 28% | 1021.1 hPa | 0 mm | 3.13 m/s, 336° | 96 W/m² | - |
| 1777480280 | 15.56° C | 28% | 1021 hPa | 0 mm | 0.89 m/s, 254° | 97 W/m² | - |
| 1777480219 | 15.56° C | 29% | 1021.1 hPa | 0 mm | 0.89 m/s, 31° | 98 W/m² | - |
| 1777480158 | 15.56° C | 29% | 1021 hPa | 0 mm | 0.89 m/s, 118° | 98 W/m² | - |
| 1777480097 | 15.56° C | 29% | 1021.1 hPa | 0 mm | 0.89 m/s, 202° | 104 W/m² | - |
| 1777480036 | 15.56° C | 29% | 1021.1 hPa | 0 mm | 0.89 m/s, 103° | 106 W/m² | - |
| 1777479975 | 15.56° C | 30% | 1021 hPa | 0 mm | 0.89 m/s, 132° | 109 W/m² | - |
| 1777479914 | 15.56° C | 29% | 1020.9 hPa | 0 mm | 0.89 m/s, 184° | 107 W/m² | - |
* Rain latest hour (hover to see other rain measurements)
** Current wind speed in m/s (hover to see current wind gust speed)